RH
89 94 84 71 71 54 63 73 95 50 68 87 90 87 53 48 59 52 49 49 52 51 68 81 88 83 72 56 53 73 70 85 99 74 62 79 100 100 100 99 96 96 99 97
84 78 78 69 49 44 56 88 86 57 72 91 85 56 55 55 51 50 47 52 49 41 46 66 58 75 56 58 56 70 65 84 94 74 61 66 99 98 88 87 99 97 97 98
80 74 67 59 44 42 48 82 92 87 83 72 61 56 56 57 47 49 45 47 46 48 48 43 49 48 57 54 56 56 62 76 77 94 94 98 84 94 96 89 98 98 98 98
78 77 70 66 51 45 53 80 83 72 93 75 63 61 52 56 59 48 44 50 52 54 62 61 59 57 58 57 53 60 68 92 58 61 69 72 78 82 84 98 99 98 99 99
91 93 86 74 59 48 50 77 81 76 72 63 62 61 59 56 55 61 57 57 53 58 65 66 70 62 61 67 62 83 73 87 65 67 56 67 80 79 86 80 87 100 93 100
94 96 92 86 71 41 50 52 55 70 68 70 69 66 59 59 53 53 51 58 65 69 65 60 60 65 61 57 61 73 74 86 82 88 65 62 75 81 83 77 71 86 99 94
88 92 91 88 67 56 51 49 61 74 68 69 61 52 54 58 57 65 52 58 66 62 60 61 62 68 70 61 62 64 72 77 74 88 74 85 62 66 62 74 67 70 78 74
93 95 87 79 71 60 50 51 58 74 74 64 56 48 48 56 54 57 60 57 57 60 68 74 74 72 63 67 62 62 68 72 87 86 94 66 67 69 68 76 76 70 84 82
91 99 97 88 86 61 66 65 54 68 72 60 49 51 45 66 68 71 57 52 52 61 73 78 82 86 58 63 56 53 55 65 83 79 82 84 62 66 61 64 89 78 77 88
79 84 86 93 93 84 73 70 55 68 66 61 50 56 58 55 62 74 65 61 66 64 83 82 90 73 56 73 65 68 69 73 85 82 84 72 60 64 60 86 76 81 80 84
67 73 74 89 97 90 81 72 54 54 75 65 55 49 55 56 66 73 69 71 72 84 83 86 80 70 65 62 59 55 65 78 87 76 71 72 69 71 83 73 79 82 78 81
69 72 77 88 98 92 90 70 63 50 74 68 63 57 58 56 57 74 71 77 74 83 89 84 82 69 68 65 71 56 64 64 67 67 69 66 69 65 65 74 82 79 79 77
66 68 78 83 99 99 95 83 60 56 79 75 75 71 60 59 59 57 71 80 75 78 78 85 86 80 71 71 71 53 56 59 64 62 56 75 71 66 64 68 75 79 79 77
62 72 76 82 80 85 92 88 66 52 69 71 61 63 64 60 66 66 69 70 68 71 83 84 89 86 63 71 62 71 59 62 66 69 58 59 73 74 70 70 75 74 70 72
55 67 65 76 79 84 94 94 79 54 56 78 78 64 66 67 68 70 72 73 77 86 86 89 89 84 76 80 79 90 68 68 68 64 59 62 64 76 72 76 76 76 76 75
53 65 73 88 88 97 100 78 73 69 55 89 92 71 72 68 68 72 76 77 82 85 88 88 86 71 76 91 92 66 64 57 53 46 51 58 52 73 74 75 75 75 76 76
58 64 85 97 98 97 74 85 68 64 57 82 90 86 74 66 69 76 78 72 81 86 86 90 84 80 77 92 83 58 53 51 51 51 64 66 70 77 76 72 72 68 72 71
63 71 88 97 100 93 84 72 67 56 59 69 93 91 79 67 87 89 83 86 87 86 86 85 81 82 87 96 71 58 44 43 64 73 60 66 73 79 77 75 75 81 83 82
76 79 95 99 98 97 88 81 78 65 69 95 95 95 88 77 86 87 87 88 95 83 90 88 82 83 94 71 66 64 63 59 68 75 71 80 79 82 84 81 83 85 87 82
80 94 98 100 99 96 84 88 96 98 96 98 100 89 97 87 88 90 94 92 97 99 84 79 90 85 61 54 48 48 56 57 69 82 84 86 87 84 85 83 84 85 83 74
93 100 98 100 95 91 98 97 100 99 98 97 95 90 95 86 90 95 90 97 96 100 81 81 94 95 75 56 52 43 52 58 64 59 64 76 75 82 85 87 83 75 66 66
80 94 98 96 99 100 100 98 93 99 92 93 95 90 85 87 88 96 98 99 96 98 82 97 100 72 61 64 59 51 55 60 70 77 78 84 80 79 80 80 72 62 57 59
89 96 99 98 99 99 99 98 98 99 94 95 94 96 93 95 93 98 99 100 97 79 94 93 87 52 54 62 62 59 63 67 76 83 78 80 81 77 74 69 59 57 61 63
99 99 99 97 99 92 90 88 89 87 94 95 95 99 93 93 98 98 99 89 93 99 96 92 65 54 55 63 67 78 85 84 83 83 83 81 75 71 65 60 57 62 76 73
99 99 94 93 84 94 90 91 93 95 91 89 95 97 94 95 99 91 97 97 99 96 84 81 87 72 67 71 74 83 88 89 86 81 78 76 69 67 70 58 60 64 72 77
100 99 98 93 93 97 99 98 93 97 89 96 93 98 99 99 96 98 96 96 91 72 89 90 94 86 91 91 85 88 87 84 83 76 74 72 73 74 79 73 71 71 73 79
99 98 86 90 94 89 91 96 95 88 84 89 96 100 84 89 100 100 94 91 80 83 92 93 93 88 89 92 94 92 88 87 79 74 71 73 75 79 87 91 85 78 76 77
Wind_Speed
16 20 15 7 16 22 15 4 3 10 18 4 2 2 1 3 4 2 1 2 3 2 4 1 1 2 6 3 2 6 4 3 4 6 4 5 2 5 5 2 6 3 3 4
13 13 8 10 19 19 6 2 2 6 5 3 3 3 4 5 2 3 3 2 2 1 2 2 3 4 5 4 1 0 3 3 5 8 3 3 4 9 13 6 2 11 3 5
8 8 10 13 25 20 1 2 3 4 3 1 1 3 1 2 5 3 2 0 2 2 3 4 3 1 4 4 2 5 0 3 3 2 3 3 6 10 13 9 3 7 10 9
4 7 7 13 22 12 3 3 1 3 3 5 5 4 2 2 3 4 2 2 3 3 2 5 2 4 3 2 3 2 3 3 3 5 6 3 4 9 13 12 11 7 10 10
5 9 10 12 17 7 4 2 2 4 3 5 6 5 5 2 1 5 4 2 4 5 3 2 2 4 2 1 3 1 1 3 4 4 6 3 3 9 9 9 11 5 10 7
9 11 11 12 13 7 3 1 1 4 3 4 3 3 3 4 3 2 3 4 4 3 1 3 4 4 5 5 2 2 1 1 4 4 6 3 4 2 4 3 10 7 6 5
8 9 9 10 11 8 3 2 2 3 2 2 1 3 4 5 3 4 2 4 4 2 6 6 5 6 7 7 7 5 2 2 2 4 5 4 4 4 2 2 7 8 9 10
5 6 7 8 10 8 7 4 1 2 1 2 4 4 2 4 4 3 4 2 2 5 5 3 4 1 2 6 7 7 6 0 3 1 1 5 2 4 2 2 2 6 5 8
4 4 4 6 8 7 4 5 5 1 3 3 4 3 0 2 2 5 2 2 5 3 1 2 2 2 2 1 2 5 3 2 3 2 1 3 3 3 4 2 1 3 5 6
5 4 4 5 4 6 6 2 9 1 1 3 3 3 4 2 1 1 3 2 3 3 2 2 2 3 1 1 2 3 2 2 4 4 3 6 3 5 3 2 4 4 4 4
5 5 5 5 4 4 5 2 6 1 1 4 3 2 3 1 3 3 3 3 3 2 1 1 3 1 3 2 4 3 4 4 3 2 3 6 6 3 4 3 4 6 5 5
7 5 5 4 4 2 3 1 4 3 3 4 3 6 7 4 4 5 1 5 2 3 0 2 2 3 3 2 3 2 2 5 2 6 5 3 5 3 3 5 5 5 5 4
7 6 5 3 5 5 4 3 4 2 2 4 2 4 5 9 10 7 4 1 2 2 3 2 3 3 3 2 5 3 3 3 2 3 2 5 5 3 4 5 5 6 5 6
7 7 7 8 9 8 7 4 3 1 1 1 4 2 3 5 9 8 6 2 1 1 2 2 3 2 2 3 4 4 5 5 4 5 5 2 6 6 7 6 7 6 5 5
7 7 8 9 12 14 13 10 7 6 2 2 4 2 2 3 7 6 6 5 1 1 0 2 3 3 1 3 2 5 6 7 6 6 8 5 5 9 8 7 6 7 5 4
7 7 7 8 5 13 10 2 3 9 7 3 2 1 1 1 3 4 5 5 2 1 2 3 3 2 2 2 4 7 6 6 7 5 4 6 4 9 8 8 7 6 7 6
7 6 3 4 5 15 2 2 3 4 8 2 3 3 2 3 2 1 1 1 1 2 2 3 3 2 3 3 7 6 8 9 7 5 7 2 5 6 8 8 9 12 11 11
8 6 4 6 12 9 3 4 1 7 2 2 1 3 2 6 2 2 4 2 1 2 3 2 3 0 2 5 11 9 8 5 7 9 3 7 6 8 7 12 11 9 7 6
9 5 7 6 3 4 2 3 5 8 2 2 2 3 4 2 2 1 1 3 3 2 3 3 4 3 6 13 9 8 9 8 9 8 7 8 9 10 9 9 9 8 7 6
14 10 4 1 2 4 7 1 1 1 1 1 3 2 3 4 2 1 1 2 3 2 5 3 4 5 11 18 21 16 8 10 10 7 8 8 8 12 11 10 7 8 8 10
9 6 2 4 9 3 1 2 2 2 3 4 4 6 4 3 3 3 3 3 2 2 4 5 3 4 7 8 13 14 11 11 14 9 9 8 13 13 10 8 8 14 16 12
16 13 9 5 2 1 3 3 3 5 5 3 3 4 4 2 2 3 2 3 1 6 1 1 3 6 8 8 9 7 10 13 13 9 12 10 13 16 12 11 12 16 19 19
17 4 3 4 3 5 6 7 4 3 3 3 3 1 3 2 1 1 2 4 6 1 1 4 5 8 3 4 4 7 6 12 13 9 15 18 17 21 21 15 20 23 21 18
2 6 7 7 6 8 7 6 4 5 4 4 3 1 2 2 4 3 3 5 2 3 4 6 5 5 6 4 3 4 7 9 11 12 11 12 16 15 22 24 27 25 20 18
4 5 7 8 5 2 4 4 2 2 7 6 3 2 3 1 1 4 0 2 5 6 5 4 4 6 4 4 2 3 4 6 8 9 11 11 18 18 18 24 24 23 22 20
3 6 4 3 6 3 1 3 4 2 5 3 3 4 3 5 4 6 9 5 7 5 4 3 4 6 3 2 2 4 5 5 6 10 14 17 17 18 20 22 22 21 21 20
6 5 8 5 3 5 5 3 4 7 6 3 3 7 13 2 2 5 5 6 4 4 3 3 3 5 6 4 5 7 8 7 10 11 14 15 19 23 19 11 19 19 18 16
Wind_Direction
71 90 110 81 6 359 19 15 24 341 347 44 18 9 30 119 160 213 186 41 8 57 163 160 40 219 207 247 305 316 222 200 278 257 208 142 287 317 318 316 336 303 315 344
83 81 76 19 355 350 356 92 271 339 2 63 3 339 17 40 55 43 24 100 341 59 126 37 226 206 235 230 338 30 310 287 328 347 12 47 2 356 358 335 300 11 348 354
75 54 30 6 356 345 4 71 13 326 24 237 248 114 76 23 12 18 2 296 261 289 213 194 206 309 208 173 203 302 159 272 175 178 279 278 355 1 358 355 350 332 21 345
318 340 351 359 5 12 38 39 290 162 315 336 16 22 356 111 351 343 324 255 41 10 342 354 106 10 355 204 242 277 169 284 303 274 228 197 42 9 5 12 359 18 334 6
339 343 344 355 7 359 62 86 59 356 300 336 355 4 343 6 357 8 335 28 346 64 78 83 318 14 31 256 314 204 205 283 303 289 247 138 40 21 2 5 359 338 352 37
358 357 355 358 11 35 89 64 113 108 298 343 41 303 352 346 14 320 343 332 351 55 354 301 264 259 276 237 234 254 234 322 343 284 312 1 357 17 31 349 8 349 3 27
355 1 9 16 14 27 10 19 127 98 289 80 321 348 6 349 18 322 342 10 4 288 310 298 271 261 269 264 263 199 283 338 253 270 1 4 235 176 255 72 16 21 20 18
360 13 24 26 27 18 40 24 333 128 175 192 8 354 342 360 337 307 316 348 262 312 315 346 328 335 247 247 237 211 207 152 307 111 217 279 250 208 189 80 44 357 35 353
2 349 351 2 21 18 357 2 4 75 125 236 194 187 227 193 276 329 270 304 304 320 282 359 315 251 240 239 276 221 229 176 118 322 79 246 220 173 109 106 286 30 35 11
320 319 314 299 344 3 4 356 355 83 152 265 166 192 174 152 107 207 299 291 329 30 331 301 254 284 179 294 254 182 231 216 192 254 247 285 264 130 106 93 206 127 98 61
299 299 310 305 308 349 4 335 5 38 174 271 233 204 178 146 136 146 257 19 354 31 355 219 284 279 265 338 257 204 187 170 211 185 237 289 147 80 173 173 126 141 131 133
296 288 293 287 231 304 338 260 346 311 178 235 239 250 254 241 194 145 228 174 222 210 193 341 314 317 331 224 287 329 268 190 207 181 225 249 189 196 180 144 144 156 135 123
287 274 260 272 237 270 274 282 323 295 1 312 344 235 231 231 225 219 138 289 168 97 168 188 258 271 124 256 255 269 263 197 223 12 264 212 201 187 159 150 146 149 149 125
269 271 262 243 240 240 258 257 267 230 154 248 280 244 242 204 209 228 247 148 81 207 118 195 226 226 169 243 250 215 218 145 207 264 270 286 251 202 178 155 141 137 134 126
262 267 260 257 257 240 242 259 254 234 168 225 279 291 214 218 202 217 238 247 202 148 307 199 229 234 278 258 296 243 193 195 185 222 215 186 235 185 165 149 159 151 127 95
253 271 272 280 274 200 188 294 234 224 200 86 316 316 106 176 222 214 210 222 249 198 183 234 260 236 157 259 255 250 218 212 188 224 200 194 258 164 158 158 161 155 149 154
236 234 241 231 182 168 163 183 128 167 181 101 316 314 308 172 187 159 137 137 217 178 252 232 226 250 187 233 244 235 230 219 212 183 123 123 177 181 163 139 145 132 123 118
212 215 201 207 197 200 227 218 175 153 180 85 143 266 320 176 195 206 174 172 188 219 226 277 210 235 209 256 246 262 247 231 187 180 202 176 147 127 133 131 129 127 134 128
181 179 161 161 199 194 206 209 211 204 192 211 174 178 242 168 255 185 173 156 199 195 222 231 143 213 225 238 257 229 215 197 189 181 143 146 154 159 148 147 149 148 157 143
157 144 158 211 190 154 145 124 94 40 274 249 235 175 221 131 128 244 149 244 242 201 223 153 206 247 256 256 245 235 217 198 161 151 185 167 170 167 167 173 156 153 153 142
161 160 137 128 144 159 108 234 214 155 242 212 233 192 151 213 136 201 201 212 237 267 247 176 230 257 237 251 253 248 208 193 194 189 181 175 169 167 161 154 149 144 147 148
167 137 118 136 165 185 200 196 199 221 235 220 171 208 166 158 134 110 265 223 106 256 154 278 258 246 244 242 259 261 200 184 182 163 161 160 164 164 155 149 146 150 155 154
126 93 123 143 163 203 206 190 216 213 210 193 166 141 136 97 113 162 107 221 231 63 215 240 243 261 253 245 276 281 210 178 160 149 159 160 156 154 152 147 153 153 154 158
140 159 181 206 189 207 202 195 175 212 128 118 95 56 131 149 158 155 210 237 60 256 244 241 243 292 322 237 243 159 174 164 153 149 148 150 146 141 148 154 157 154 152 158
174 181 207 214 225 229 197 174 138 188 138 128 89 49 100 193 156 195 90 252 251 219 234 240 267 312 318 269 211 184 152 144 142 145 140 139 138 140 140 156 159 160 155 156
214 220 197 209 171 246 190 175 196 192 138 94 80 134 144 235 188 172 212 153 220 249 235 252 304 323 298 286 263 138 128 137 137 140 139 137 142 147 148 151 156 160 162 159
215 214 207 172 160 189 193 152 186 153 141 178 148 163 212 111 180 220 191 208 218 236 262 240 242 267 262 221 183 159 144 137 137 133 139 138 146 147 140 141 159 161 162 159